Theta_e
363 360 359 350 317 313 308 314 322 319 320 326 329 327 324 328 322 308 340 346 352 353 356 358 362 359 358 357 357 358 360 357 360 360 360 360 359 359 358 358 358 359 358 358 359 358 356 356 357
361 358 353 337 310 304 308 319 320 321 326 329 330 330 327 325 336 337 338 350 354 354 355 356 363 361 358 359 360 360 359 359 359 359 360 359 360 359 359 359 359 358 359 359 358 357 357 357 357
358 357 335 324 308 306 309 323 320 325 329 327 326 331 330 326 336 338 345 352 353 351 353 356 363 363 362 361 361 359 358 359 360 360 359 359 360 360 360 358 358 358 358 360 358 358 357 357 357
347 342 335 312 310 316 320 323 325 325 327 329 328 322 332 340 338 344 351 352 349 348 352 357 361 362 362 362 361 360 360 358 358 360 359 359 358 359 361 361 358 358 358 359 358 357 357 358 358
341 332 313 311 313 321 326 329 325 323 325 326 327 322 327 340 346 348 349 350 346 349 354 357 364 361 360 358 359 360 359 360 359 359 359 359 360 357 358 360 360 359 358 358 359 358 358 358 357
321 321 310 308 315 322 326 326 326 325 326 326 326 323 326 343 343 346 347 345 348 351 353 355 360 358 357 358 359 359 361 359 360 358 359 359 359 358 358 358 358 358 359 358 359 357 357 357 355
317 313 310 312 316 321 324 327 323 323 324 325 328 320 327 337 342 345 343 344 348 352 351 351 351 354 357 357 356 356 357 358 358 359 358 358 359 359 358 358 358 359 358 357 359 358 357 356 355
321 316 314 314 314 316 324 326 328 325 323 330 331 321 323 335 342 342 342 343 347 349 350 348 349 351 350 351 356 355 354 355 357 357 357 356 357 358 357 358 359 358 359 359 359 358 358 357 355
325 313 310 313 315 319 327 323 329 330 325 328 328 329 333 340 341 339 338 341 344 347 347 348 347 349 350 351 354 357 356 354 352 354 356 355 353 353 356 356 358 359 358 358 359 358 358 359 357
315 311 314 320 321 322 326 325 327 324 323 323 329 334 337 338 338 336 334 334 339 341 344 346 347 348 349 353 355 353 356 354 350 350 351 350 349 350 354 357 359 358 358 359 358 359 359 357 354
317 313 319 324 324 328 326 326 329 323 319 322 325 329 334 336 335 335 335 334 336 339 343 346 347 348 348 350 351 351 352 351 350 349 350 350 350 349 351 352 354 353 356 354 356 355 355 354 353
317 323 327 329 329 327 325 328 323 325 323 328 331 333 334 334 334 334 335 335 334 335 341 344 346 346 346 346 345 349 352 350 348 349 349 347 347 346 348 349 350 351 352 352 352 352 353 352 353
321 324 327 328 327 326 328 324 324 324 326 332 333 334 333 333 334 335 336 336 335 335 337 340 343 344 345 343 344 348 351 351 349 348 348 348 347 347 347 348 350 350 350 350 351 350 350 351 351
323 324 324 325 324 326 324 324 324 325 327 332 332 332 333 332 332 334 335 334 335 337 337 341 342 343 344 342 343 345 349 351 349 348 349 349 347 347 346 347 347 349 349 349 349 350 349 350 351
322 317 319 321 323 322 325 318 319 325 327 326 328 328 331 331 334 335 337 336 338 337 340 339 341 344 344 344 344 346 348 350 348 347 348 348 346 347 347 345 346 347 349 348 349 349 349 348 349
316 312 307 317 323 322 318 309 320 325 326 326 327 328 329 332 335 338 339 339 339 342 340 341 345 344 343 343 345 346 348 348 347 348 348 348 347 347 347 344 344 348 349 350 349 349 349 348 348
310 304 306 313 321 320 313 310 318 327 325 326 327 329 329 332 334 336 338 341 340 340 343 346 347 344 344 344 345 346 347 347 348 349 348 347 347 347 344 344 344 348 350 349 347 350 349 347 347
303 304 308 307 316 318 312 310 318 326 326 326 326 328 328 330 332 335 336 340 343 340 342 344 345 345 344 345 345 345 344 344 342 343 349 350 347 346 345 346 348 351 351 350 348 347 347 348 348
308 306 307 310 319 316 312 310 316 323 324 324 326 326 330 329 333 334 334 339 340 340 338 342 339 345 344 343 342 342 342 343 344 344 344 350 350 347 348 350 351 351 350 351 350 349 347 346 349
309 306 306 310 318 313 311 311 315 319 324 325 325 326 328 331 331 333 333 336 338 337 336 339 339 341 345 344 344 345 345 345 348 349 349 349 352 351 349 348 349 350 349 349 348 347 348 346 349
307 303 306 307 312 315 310 306 312 320 322 326 328 326 326 328 329 330 332 333 335 335 336 336 338 340 341 345 345 347 348 347 347 347 349 350 350 350 349 348 351 349 349 349 346 343 346 345 347
303 311 311 310 306 298 306 297 301 312 316 320 323 328 326 324 329 332 331 331 333 333 336 337 338 338 341 342 345 345 343 342 344 344 345 346 344 341 345 349 351 352 350 349 348 349 349 347 342
308 311 308 308 302 298 301 298 301 309 310 314 318 320 328 329 327 330 331 331 334 336 336 339 341 342 345 344 345 346 346 344 344 343 340 338 343 349 353 353 352 351 352 350 348 348 349 349 345
314 309 303 300 298 294 295 299 299 304 310 311 323 327 328 329 329 331 333 334 336 339 338 339 343 345 345 346 348 347 345 343 337 338 342 345 346 345 346 348 347 345 345 344 347 349 351 350 350
309 304 296 294 292 292 295 297 301 309 314 315 316 325 328 329 328 329 330 331 335 337 337 336 345 345 347 349 350 348 346 343 341 344 345 342 341 341 340 341 340 340 340 341 344 346 348 344 346
304 303 299 292 291 292 299 297 303 315 318 317 320 319 328 328 328 328 331 332 334 338 338 339 347 346 348 349 348 346 346 345 342 342 341 337 336 336 335 333 335 335 336 336 338 338 341 340 341
300 300 309 297 294 291 296 305 311 315 316 316 318 325 325 327 329 328 330 334 337 338 338 339 343 344 345 345 344 343 343 341 338 334 333 332 331 334 333 332 331 331 331 331 332 331 332 335 336
302 304 296 293 289 288 298 302 302 309 312 316 323 324 326 328 330 330 329 333 338 340 343 344 345 344 344 341 339 337 334 332 329 329 328 328 328 329 329 330 329 330 330 330 331 329 328 329 328
298 296 294 294 292 292 292 299 309 311 313 319 323 326 330 332 331 333 335 337 340 345 345 344 342 340 337 332 329 329 326 326 326 327 327 327 328 328 329 329 329 329 327 326 326 326 325 325 325
297 297 295 291 289 295 296 297 309 314 315 323 324 328 334 336 338 338 341 343 344 344 343 338 334 334 328 324 325 325 326 326 326 326 325 326 326 328 328 328 328 326 326 325 324 323 323 323 323
Wind_Speed
10 6 3 2 5 6 3 4 3 2 2 1 7 1 4 4 1 3 2 5 11 8 5 6 12 11 10 9 8 6 8 7 9 10 10 11 11 11 13 13 13 15 15 14 17 16 17 16 15
6 4 3 2 6 4 5 3 4 2 4 9 8 5 6 3 4 10 5 8 10 7 5 5 11 12 11 9 8 8 9 6 7 9 9 8 9 10 10 11 12 13 14 14 16 14 15 14 13
7 1 3 4 4 2 3 2 5 7 4 3 5 5 3 3 11 12 6 11 9 6 5 6 12 11 10 9 9 9 7 7 8 8 8 9 8 8 9 10 11 11 11 13 13 13 13 13 13
3 3 3 5 2 1 3 5 5 6 5 7 8 7 4 6 8 6 12 10 9 6 5 9 12 11 10 9 9 8 8 8 5 8 7 8 9 7 8 11 10 10 10 10 12 12 13 12 12
2 3 4 3 3 3 5 3 3 3 4 4 3 4 5 3 10 14 11 10 9 6 5 6 11 10 9 9 7 8 7 8 7 7 8 7 8 7 6 7 9 9 9 8 9 9 9 10 9
3 2 5 2 2 3 2 4 3 4 6 6 8 5 3 8 13 11 9 7 6 6 4 5 10 10 9 9 7 5 5 5 7 7 5 7 8 5 6 4 6 7 8 7 7 8 7 7 5
3 4 4 3 3 0 3 4 2 5 6 4 9 5 2 3 6 8 7 6 5 3 4 3 4 7 10 8 7 6 5 4 3 5 4 6 5 7 7 7 5 7 6 6 6 6 5 4 3
4 4 3 2 5 3 5 3 4 5 4 5 7 6 6 6 10 8 6 5 5 4 4 3 2 2 3 3 7 6 5 4 3 3 3 2 4 4 3 4 6 6 6 5 4 4 3 3 2
3 5 1 5 6 5 7 5 3 3 10 2 2 6 10 15 13 9 6 3 3 4 4 3 3 3 3 3 4 6 6 5 4 2 2 2 3 4 2 2 3 5 7 6 6 6 5 4 4
4 4 7 5 6 7 9 9 5 4 4 5 8 14 17 15 14 13 11 9 7 6 6 4 5 5 4 3 3 1 2 2 2 2 1 1 1 2 1 2 5 5 4 4 5 5 5 5 2
4 5 4 1 3 8 8 7 3 10 1 5 13 16 16 15 11 10 11 10 11 6 4 6 5 5 4 3 2 1 1 2 2 3 2 1 1 1 2 2 2 2 3 1 3 3 1 1 1
6 6 2 1 6 7 10 6 5 1 5 10 15 17 14 15 13 12 7 5 5 5 7 5 6 5 4 1 2 2 2 2 2 3 3 2 1 2 3 2 2 2 2 2 2 2 3 3 3
9 3 5 5 10 7 5 7 6 3 9 11 14 13 11 10 7 4 6 7 6 6 5 8 6 5 4 4 2 2 3 2 3 3 3 3 3 2 2 2 2 3 2 3 3 4 4 5 5
6 7 3 7 7 4 7 4 5 2 13 14 14 14 13 9 8 4 5 6 8 7 7 4 6 7 5 4 3 3 3 3 3 3 3 3 2 2 2 3 3 3 2 2 3 3 3 4 4
6 7 3 4 2 4 6 4 2 8 13 14 12 12 13 11 10 9 8 7 6 5 7 8 5 4 7 6 5 4 4 3 3 3 4 4 4 4 3 2 2 3 2 4 3 3 3 4 4
4 4 1 4 2 3 3 3 1 5 16 13 14 12 12 9 9 6 8 8 7 5 5 7 7 6 6 6 5 4 4 3 3 2 2 4 4 4 3 2 3 2 2 3 3 3 3 4 4
5 3 4 2 5 3 3 2 6 6 10 12 12 12 10 6 5 7 3 6 6 6 7 7 7 8 6 6 4 4 4 3 1 2 2 4 4 5 3 3 2 3 3 2 2 2 2 3 3
5 3 3 2 5 3 3 4 5 8 11 13 11 9 9 11 12 7 6 3 6 7 4 2 5 7 6 4 2 0 1 2 2 3 3 5 4 4 3 2 3 3 2 3 2 3 2 3 3
4 2 1 3 5 6 7 4 10 9 7 10 9 9 7 5 6 8 7 5 4 5 5 4 3 5 5 2 2 1 2 1 3 3 6 5 4 4 3 3 3 3 4 3 3 2 3 2 2
1 2 4 4 2 4 3 6 8 11 15 16 15 12 8 5 6 6 6 7 8 6 6 6 5 4 4 2 2 2 2 3 3 2 2 3 4 4 4 4 4 4 3 4 3 3 1 2 3
3 1 1 4 3 3 2 4 3 3 2 8 10 10 8 11 9 7 7 6 6 6 6 6 6 8 5 4 2 2 2 1 2 2 1 2 2 2 3 3 3 4 2 4 3 3 5 2 1
4 4 2 6 3 2 3 6 4 2 7 8 12 11 13 13 8 7 8 5 7 5 4 6 6 7 4 6 4 4 2 2 2 1 1 1 2 2 2 3 4 3 3 4 2 3 4 3 3
5 4 2 4 3 2 2 4 10 1 7 10 11 11 13 11 11 8 9 8 6 6 4 4 4 4 3 5 5 3 3 1 1 1 3 0 0 2 2 2 1 1 1 2 4 3 3 2 1
2 3 5 3 3 4 2 5 8 4 7 3 2 5 6 7 7 6 8 9 7 6 5 4 4 5 6 7 7 5 3 2 1 2 1 1 3 3 5 6 4 4 5 4 3 3 2 1 2
8 7 6 6 6 6 5 3 11 7 5 2 6 7 6 5 6 6 8 8 8 7 6 5 6 6 6 5 4 4 4 4 4 1 1 2 1 3 4 4 5 4 3 4 3 3 4 3 2
4 7 7 2 3 6 2 6 8 6 5 1 0 4 4 7 7 7 7 7 8 7 5 2 6 6 6 5 4 4 5 3 3 3 3 2 2 3 2 3 4 4 4 4 4 2 3 3 3
3 3 6 7 3 3 4 8 5 6 3 4 5 4 7 8 8 7 6 7 7 7 6 4 6 4 4 5 5 5 6 5 4 5 4 3 4 3 4 4 4 5 4 4 4 4 4 3 3
6 7 5 2 4 5 5 6 7 6 9 6 6 8 6 5 7 7 7 7 6 7 6 10 17 12 3 6 5 5 5 5 5 4 4 4 4 4 5 5 5 5 5 5 5 4 5 4 3
3 1 6 5 5 6 3 8 9 12 12 12 10 8 7 7 7 7 8 7 7 9 10 8 8 7 8 6 5 6 5 5 4 4 4 4 3 4 4 4 4 5 5 5 5 4 5 5 4
4 8 7 7 6 3 4 9 2 5 9 12 11 8 5 4 6 6 9 9 9 10 8 6 7 7 9 6 6 5 5 5 5 4 4 3 4 4 4 4 5 5 4 4 5 5 5 5 5
Wind_Direction
137 142 140 66 52 62 337 344 98 98 108 336 128 139 139 36 113 192 155 137 128 141 152 149 144 143 137 129 122 118 96 94 95 104 104 112 107 104 106 103 95 96 94 105 114 110 106 108 105
139 151 42 79 77 60 295 336 50 52 91 92 82 93 43 71 76 117 107 143 127 136 126 136 148 147 149 149 137 120 110 107 101 118 116 109 113 113 105 102 93 92 98 108 109 110 103 107 107
171 286 57 79 101 151 203 62 105 129 98 89 105 66 82 72 121 135 143 137 121 119 126 151 149 143 145 144 133 119 116 107 107 131 118 119 112 120 116 113 105 100 96 98 102 111 120 116 109
166 37 32 71 100 234 173 148 132 128 82 68 121 69 82 135 137 143 136 131 122 135 143 158 150 150 146 142 129 133 130 128 115 118 130 125 119 111 114 123 115 109 106 106 111 115 115 112 111
82 72 56 60 356 18 55 87 85 93 88 37 50 89 83 106 115 137 140 140 139 144 154 157 151 148 147 143 142 142 151 142 139 126 125 119 125 120 120 118 119 117 112 112 108 113 116 117 108
60 98 56 79 51 59 60 113 93 72 85 109 77 87 106 125 134 146 141 137 136 144 143 150 159 161 156 152 143 125 122 113 145 138 132 129 125 130 124 127 131 125 128 127 122 116 126 118 120
135 89 156 108 113 151 152 144 109 117 112 98 134 86 52 119 134 133 118 114 118 131 140 160 165 170 166 161 152 144 124 116 123 126 123 142 142 150 164 147 148 150 152 145 142 144 131 113 93
131 94 97 118 179 208 150 88 108 105 57 99 150 160 178 171 134 112 101 111 135 156 180 183 164 164 162 162 164 157 146 136 98 114 125 130 150 159 145 145 173 161 169 156 168 147 144 162 219
121 66 174 182 162 169 152 122 184 76 133 64 10 117 126 135 123 116 116 124 163 183 206 187 184 194 172 175 210 175 174 159 158 148 148 87 21 3 359 159 249 194 181 189 187 179 183 196 216
103 104 210 202 166 167 143 118 127 108 119 44 77 99 123 136 149 158 171 179 192 202 211 194 198 204 189 201 221 10 161 105 131 117 71 40 0 308 272 265 240 241 241 227 227 211 209 210 189
163 156 191 337 197 125 121 116 98 127 111 200 152 142 143 152 167 177 185 194 191 194 209 198 199 214 200 215 190 225 110 146 157 184 188 219 276 263 296 277 299 330 271 296 317 308 297 255 222
87 55 69 109 108 112 139 112 102 110 222 154 149 148 155 171 178 184 193 201 186 201 198 202 197 203 212 202 223 229 190 183 176 194 213 151 189 236 225 228 244 261 275 253 264 301 294 268 243
67 32 20 64 80 94 99 123 131 106 114 126 128 145 170 177 181 190 192 168 177 225 224 213 173 199 194 207 237 232 226 201 199 200 191 178 196 195 213 251 226 221 224 217 221 222 232 254 259
98 74 6 46 82 79 123 138 109 122 121 132 140 168 178 179 181 143 167 181 190 190 205 221 195 189 164 196 211 258 233 219 199 209 207 219 209 192 194 213 237 245 251 248 227 230 234 248 251
88 78 17 4 41 111 102 11 103 157 124 135 163 176 181 166 174 179 174 185 191 192 187 181 210 200 171 190 196 214 242 218 207 209 209 205 203 197 181 194 222 229 229 246 245 266 268 273 269
80 64 81 246 203 138 93 257 139 184 141 152 183 183 175 174 192 179 189 164 172 136 187 165 186 184 194 179 205 213 232 221 215 193 193 214 222 204 190 200 226 254 259 215 191 216 243 254 249
10 219 212 292 213 140 142 192 202 179 167 170 190 184 181 155 206 221 215 160 156 136 144 145 159 190 193 174 200 209 208 223 239 183 213 227 216 206 202 202 230 246 249 240 237 232 203 260 254
202 218 248 210 215 202 164 219 187 183 175 195 203 191 191 171 210 215 213 223 134 138 178 198 157 172 147 140 130 51 206 251 237 221 226 213 222 221 215 248 264 259 256 252 261 252 242 248 255
137 195 345 243 206 153 202 195 199 186 192 207 213 215 213 195 185 200 192 176 147 158 150 144 232 155 140 147 143 169 214 229 254 220 243 229 222 234 234 248 250 232 241 238 232 232 232 250 248
141 57 329 302 161 181 144 237 204 190 206 205 207 215 203 181 166 202 207 170 182 173 160 165 229 230 185 163 137 137 166 213 234 233 225 241 230 218 224 242 259 250 256 235 234 235 286 268 195
353 59 358 246 359 51 273 324 199 243 258 215 218 217 204 197 202 186 195 188 171 181 186 194 184 225 213 170 117 123 102 26 322 263 229 189 211 238 258 271 274 280 271 246 206 201 211 228 250
17 227 221 272 85 288 31 285 293 182 220 224 224 216 221 203 195 164 181 183 176 185 193 208 215 209 211 171 174 196 198 234 252 269 332 18 124 141 235 250 243 261 246 251 232 230 217 197 248
221 202 296 340 117 45 16 68 270 18 237 223 224 230 220 213 195 183 171 169 171 140 162 181 203 198 201 186 185 196 244 218 296 2 321 239 271 279 320 335 301 327 337 312 285 249 237 205 237
105 24 51 76 71 8 4 124 287 263 234 109 155 259 204 188 193 156 145 147 135 130 124 152 187 178 179 187 186 178 229 223 221 207 201 92 100 90 53 72 53 39 24 351 356 322 95 213 231
67 54 352 353 9 227 360 73 242 269 274 204 184 233 220 186 172 173 152 141 132 135 146 186 201 173 170 169 171 175 182 170 223 185 130 87 78 52 10 30 55 34 12 346 357 29 60 36 49
142 133 144 281 318 292 99 241 260 244 313 166 162 227 210 179 172 179 155 141 135 141 166 226 239 138 136 141 137 123 133 123 96 91 85 46 60 72 68 58 60 44 22 22 24 33 36 34 32
154 189 183 106 50 337 267 290 314 330 330 322 286 184 212 199 169 160 136 128 132 136 150 144 19 85 137 123 125 112 103 110 101 84 79 52 30 35 36 38 44 40 30 21 20 32 25 27 26
146 161 84 10 192 248 290 280 241 232 242 238 217 208 197 185 146 152 148 149 139 149 131 126 144 207 140 116 108 100 106 105 100 90 71 61 39 25 21 28 33 36 38 35 39 34 15 23 10
78 195 52 120 137 181 202 260 216 201 201 191 207 204 187 177 150 145 135 148 154 144 161 180 117 152 124 115 120 116 108 103 97 89 67 46 38 21 29 32 37 57 52 40 40 23 17 7 351
163 191 148 132 234 237 162 270 272 226 176 180 198 193 170 133 114 130 127 129 142 153 169 166 126 140 124 127 119 109 119 119 109 95 79 55 45 27 19 37 87 77 59 39 31 13 358 352 343